Location: Helsinki
(60.1699°N, 24.9384°E)
Time: 14:55:12
(UTC+02:00)

Tiros 1 - Pass Details

Date: 06 October 2022
Orbit: 629 x 662 km, 48.4° (Epoch: 07 December)

Event Time Altitude Azimuth Distance (km) Brightness Sun altitude
Rises 04:08:37 0° 258° (WSW) 2,990 - -25.2°
Reaches altitude 10° 04:11:54 10° 235° (SW) 2,071 - -24.9°
Maximum altitude 04:14:30 15° 202° (SSW) 1,771 - -24.7°
Drops below altitude 10° 04:17:06 10° 169° (SSE) 2,058 - -24.4°
Exits shadow 04:19:24 - 150° (SSE) 2,662 10.2 -24.2°
Sets 04:20:21 0° 145° (SE) 2,959 10.5 -24.1°
